Weather History for Livingston, MT

Change the Weather History Date:

Thursday, December 5, 2013

  Actual Average Record
Temperature  
Mean Temperature -8 °F 27 °F  
Max Temperature 0 °F 36 °F 59 °F (2012)
Min Temperature -17 °F 18 °F -18 °F (1972)
Degree Days  
Heating Degree Days 73 38  
Month to date heating degree days 255 188  
Since 1 July heating degree days 1962 2147  
Moisture  
Dew Point -17 °F    
Average Humidity 68    
Maximum Humidity 78    
Minimum Humidity 58    
Precipitation  
Precipitation 0.00 in 0.02 in 0.39 in (1978)
Month to date precipitation 0.27 0.10  
Year to date precipitation 11.57 14.39  
Sea Level Pressure  
Sea Level Pressure 30.42 in    
Wind  
Wind Speed 11 mph (WNW)    
Max Wind Speed 18 mph    
Max Gust Speed 21 mph    
Visibility 10 miles    
Events      
T = Trace of Precipitation, MM = Missing Value Source: NWS Daily Summary

Daily Weather History Graph

Daily Weather History Graph

Search for Another Location

Airport:

Trip Planner

Search our weather history database for the weather conditions in past years. The results will help you decide how hot, cold, wet, or windy it might be!

Date:

Astronomy

Dec. 05, 2013 Rise Set
Actual Time 7:46 AM MST 4:37 PM MST
Civil Twilight 7:13 AM MST 5:11 PM MST
Nautical Twilight 6:35 AM MST 5:49 PM MST
Astronomical Twilight 5:59 AM MST 6:25 PM MST
Moon 10:05 AM MST (12/5) 8:08 PM MST (12/5)
Length of Visible Light 9h 58m
Length of Day
8h 51m
Waxing Crescent, 11% of the Moon is Illuminated
Dec 5
Waxing Crescent
Dec 9
First Quarter
Dec 17
Full
Dec 25
Last Quarter
Jan 1
New

Hourly Weather History & Observations

Time (MST) Temp. Windchill Dew Point Humidity Pressure Visibility Wind Dir Wind Speed Gust Speed Precip Events Conditions
12:53 AM -11.9 °F -29.9 °F -18.9 °F 71% 30.42 in 10.0 mi NW 9.2 mph - N/A   Clear
1:53 AM -11.9 °F -32.0 °F -18.9 °F 71% 30.41 in 10.0 mi NW 11.5 mph - N/A   Clear
2:53 AM -13.0 °F -36.8 °F -20.9 °F 68% 30.41 in 10.0 mi NW 16.1 mph - N/A   Clear
3:53 AM -14.1 °F -36.6 °F -22.0 °F 68% 30.40 in 10.0 mi NW 13.8 mph - N/A   Clear
4:53 AM -14.1 °F -38.9 °F -22.0 °F 68% 30.40 in 10.0 mi NW 17.3 mph - N/A   Clear
5:53 AM -15.0 °F -40.0 °F -23.1 °F 67% 30.40 in 10.0 mi NW 17.3 mph - N/A   Clear
6:53 AM -16.1 °F -41.4 °F -23.1 °F 71% 30.41 in 10.0 mi NW 17.3 mph - N/A   Clear
7:53 AM -17.0 °F -41.9 °F -24.0 °F 70% 30.41 in 10.0 mi NW 16.1 mph - N/A   Clear
8:53 AM -15.0 °F -39.3 °F -23.1 °F 67% 30.42 in 10.0 mi NW 16.1 mph - N/A   Clear
9:53 AM -11.0 °F -33.5 °F -20.0 °F 64% 30.43 in 10.0 mi NW 15.0 mph - N/A   Clear
10:53 AM -6.0 °F -24.6 °F -15.0 °F 65% 30.41 in 10.0 mi NW 11.5 mph - N/A   Clear
11:53 AM -2.9 °F -19.8 °F -13.0 °F 62% 30.39 in 10.0 mi WNW 10.4 mph - N/A   Clear
12:53 PM -0.0 °F -16.3 °F -11.0 °F 60% 30.38 in 10.0 mi West 10.4 mph - N/A   Clear
1:53 PM -0.0 °F -14.2 °F -9.9 °F 63% 30.36 in 10.0 mi West 8.1 mph - N/A   Clear
2:53 PM -0.9 °F -15.3 °F -9.9 °F 66% 30.37 in 10.0 mi WSW 8.1 mph - N/A   Clear
3:53 PM -2.0 °F -17.7 °F -11.9 °F 63% 30.39 in 10.0 mi West 9.2 mph - N/A   Clear
4:53 PM -6.0 °F -22.6 °F -14.1 °F 68% 30.41 in 10.0 mi West 9.2 mph - N/A   Clear
5:53 PM -8.0 °F -21.0 °F -15.0 °F 71% 30.44 in 10.0 mi East 5.8 mph - N/A   Clear
6:53 PM -8.0 °F -16.9 °F -15.0 °F 71% 30.46 in 10.0 mi ESE 3.5 mph - N/A   Mostly Cloudy
7:53 PM -9.9 °F -19.2 °F -17.0 °F 71% 30.49 in 10.0 mi SW 3.5 mph - N/A   Scattered Clouds
8:53 PM -13.0 °F -25.1 °F -20.0 °F 71% 30.52 in 10.0 mi WSW 4.6 mph - N/A   Overcast
9:53 PM -11.9 °F -29.9 °F -17.0 °F 78% 30.50 in 10.0 mi West 9.2 mph - N/A   Clear
10:53 PM -8.0 °F -26.1 °F -16.1 °F 68% 30.48 in 10.0 mi West 10.4 mph - N/A   Scattered Clouds
11:53 PM -7.1 °F -21.4 °F -16.1 °F 65% 30.48 in 10.0 mi West 6.9 mph - N/A   Overcast